Regional Weather Roundup
Issued by NWS

Home | Current Version | Previous Version | Graphics & Text | Print | Product List | Glossary Off
Versions: 1 2 3 4 5 6 7 8 9 10 11 12 13 14 15 16 17 18 19 20 21 22 23 24 25 26 27 28 29 30 31 32 33 34 35 36 37 38 39 40 41 42 43 44 45 46 47 48 49 50

960
ASUS43 KTOP 301559
RWRKS

WEATHER ROUNDUP FOR KANSAS
NATIONAL WEATHER SERVICE GOODLAND KS
1100 AM CDT MON MAY 30 2016

NOTE:  "FAIR" INDICATES FEW OR NO CLOUDS BELOW 12,000 FEET WITH NO
SIGNIFICANT WEATHER AND/OR OBSTRUCTIONS TO VISIBILITY.

KSZ001>006-013>018-027>032-041>047-301700-
NORTHWEST KANSAS

CITY           SKY/WX    TMP DP  RH WIND       PRES   REMARKS
GOODLAND       SUNNY     69  54  58 S9        29.99F
HAYS           SUNNY     72  55  56 S12       30.02S
HILL CITY      SUNNY     76  55  48 SW9       30.00F
RUSSELL        CLOUDY    73  62  68 S6        30.01S
$$

KSZ061>065-074>080-084>089-301700-
SOUTHWEST KANSAS

CITY           SKY/WX    TMP DP  RH WIND       PRES   REMARKS
DODGE CITY     SUNNY     70  53  54 S13       30.04F
ELKHART          N/A     74  54  49 SW9         N/A
GARDEN CITY    SUNNY     71  53  52 S10       30.02F
GREAT BEND     SUNNY     73  55  53 SW12      30.02S
LIBERAL        SUNNY     72  55  56 SE8       30.05F
$$

KSZ066>073-081>083-090>101-301700-
SOUTHEAST KANSAS

CITY           SKY/WX    TMP DP  RH WIND       PRES   REMARKS
CHANUTE        CLOUDY    74  64  71 S10       30.05S
COFFEYVILLE    PTSUNNY   73  65  75 SW8       30.07S
HUTCHINSON     CLOUDY    76  57  51 S10       30.03F
MEDICINE LODGE   N/A     75  53  46 SW10      30.03F
NEWTON         SUNNY     73  57  56 SW12G17   30.07F
PARSONS        CLOUDY    72  66  81 SW7       30.07F
WICHITA INTL   MOSUNNY   78  58  49 SW5       30.03F
WICHITA JABRA  SUNNY     78  59  51 S8        30.04F
WINFIELD       MOSUNNY   74  63  68 S8        30.08R
$$

KSZ007>012-019>026-033>040-048>060-102>105-301700-
NORTHEAST KANSAS

CITY           SKY/WX    TMP DP  RH WIND       PRES   REMARKS
CONCORDIA      CLOUDY    78  60  53 S8        30.00F
EMPORIA        MOSUNNY   76  62  62 SW7       30.03F
LAWRENCE       SUNNY     80  68  66 VRB3      30.02F
MANHATTAN      SUNNY     77  63  61 S3        30.00F
OLATHE IND     CLOUDY    79  67  66 SE8       30.04F
OLATHE EXE     CLOUDY    76  67  73 S6        30.04F
SALINA         CLOUDY    75  61  61 S5        30.01F
TOPEKA BILLARD SUNNY     79  66  64 S6        30.01F
TOPEKA FORBES  SUNNY     79  67  66 S7        30.02F
$$




USA.gov is the U.S. government's official web portal to all federal, state and local government web resources and services.